Temp
27 26 25 25 26 27 27 28 28 29 29 29 28 27 26 25 26 30 31 31 32 31 31 33 32 33 33 32 30 29 29 29 28 28 28 27 27 26 26 26 26 26 26 27 26 26 25 25 25 24 24 24 23 23 23 22 22 22 22 22 22 22 21 21 21 21 21 22 22 22 22 22 22 21 21 21 22 22 23 24 24 24 24 24 24 24
26 25 25 27 27 28 27 27 28 28 29 29 28 27 26 26 27 30 31 31 32 30 30 33 32 32 33 32 31 29 28 28 28 28 28 28 27 27 27 27 27 26 27 27 26 26 26 25 25 25 24 24 24 23 23 23 22 22 22 22 22 22 22 22 22 22 22 22 22 22 22 22 22 22 22 22 22 22 23 24 24 24 24 24 24 24
25 25 27 28 27 27 27 27 28 28 29 29 28 26 25 27 28 29 30 31 31 30 30 32 31 32 33 32 31 30 29 29 29 29 29 28 27 27 27 27 27 26 26 26 26 26 26 26 25 25 25 24 24 24 23 23 23 22 22 22 22 22 22 22 22 22 22 22 22 22 22 22 22 22 22 22 22 22 23 24 24 24 24 24 24 24
23 25 28 28 27 27 27 27 27 28 28 28 28 25 24 28 27 26 28 30 31 31 31 32 31 31 33 31 30 30 29 29 29 29 29 29 28 28 27 27 27 27 26 26 26 26 26 26 26 25 25 25 24 24 24 23 23 23 22 22 22 22 22 22 22 23 23 23 22 22 22 22 22 22 22 22 22 23 23 24 24 24 24 24 24 24
25 27 28 27 27 27 27 27 27 27 26 28 28 26 26 28 27 26 29 30 31 31 32 31 27 28 32 31 30 30 29 29 29 29 29 28 28 28 28 28 27 27 27 26 26 26 27 26 26 26 25 25 25 24 24 24 23 23 23 22 23 23 23 22 22 22 22 22 22 22 22 22 22 22 22 22 22 22 23 23 23 24 24 24 24 24
27 27 27 27 27 27 27 27 27 27 26 26 28 29 28 29 29 29 29 29 27 26 30 30 23 24 29 30 30 30 29 29 29 29 28 28 28 28 28 28 27 27 27 27 27 27 27 27 26 26 25 25 25 25 24 24 24 23 23 23 22 23 22 22 22 22 22 22 22 22 22 22 22 22 22 22 23 23 22 23 23 23 24 24 24 24
27 27 27 27 27 27 27 27 28 28 25 24 27 29 29 30 29 28 29 27 23 23 29 31 24 23 26 29 31 30 29 29 29 28 29 28 28 28 28 28 28 28 27 27 27 27 27 27 27 26 26 25 25 25 25 24 24 24 23 23 22 22 22 22 22 22 22 22 22 22 22 22 22 23 23 23 23 23 23 23 23 24 24 24 24 24
27 27 27 27 27 27 27 27 28 29 26 24 28 30 29 29 29 29 28 26 25 26 28 30 27 23 23 27 32 31 29 29 29 28 29 29 29 28 28 28 28 28 28 28 27 27 27 27 27 27 26 26 26 25 25 25 24 24 23 23 23 23 22 22 22 22 22 22 22 22 22 22 22 23 23 22 23 23 23 23 23 24 24 24 24 24
28 27 27 27 27 27 27 28 28 28 27 27 29 30 29 30 29 30 28 26 27 26 23 26 27 23 22 26 31 31 29 29 29 29 29 29 29 29 29 29 29 28 28 28 27 27 27 27 27 27 26 26 26 26 25 25 24 24 23 23 23 23 22 22 22 22 22 22 22 22 22 22 22 23 23 23 23 23 23 23 23 24 24 24 24 24
28 28 28 28 27 27 28 29 29 28 29 28 29 30 30 30 30 30 29 26 25 23 21 24 26 23 22 25 28 28 28 29 30 30 30 30 29 29 29 29 29 29 28 28 28 28 28 28 27 27 27 26 26 26 25 25 25 24 24 23 23 23 23 23 23 23 22 22 22 22 22 22 22 23 23 23 23 23 23 23 23 23 24 24 24 24
28 28 29 28 28 29 29 29 29 29 29 29 29 30 29 29 29 29 28 26 23 22 22 24 25 24 22 24 28 28 29 31 32 31 30 30 30 29 29 29 29 29 28 28 28 28 28 28 28 27 27 27 26 26 26 25 25 25 24 24 23 23 23 22 22 22 22 22 22 22 23 23 23 23 23 23 23 22 22 23 23 23 24 24 24 24
28 27 28 28 29 29 29 28 28 29 30 29 30 29 26 25 26 25 24 24 22 21 23 25 26 25 22 24 29 32 32 33 33 33 32 31 30 30 30 30 30 29 29 29 29 28 28 28 28 28 27 27 27 26 26 26 25 25 24 24 23 23 23 23 22 22 22 22 22 22 23 23 23 23 23 23 23 23 23 23 23 23 23 24 24 24
27 28 28 28 29 29 29 27 27 28 29 29 28 26 23 22 22 22 22 22 22 22 24 26 26 24 23 26 31 33 33 33 33 34 34 33 31 30 30 30 30 30 29 29 29 29 28 28 28 28 27 27 27 26 26 26 26 25 25 24 24 23 23 23 23 22 22 22 22 22 23 23 23 23 23 23 23 23 23 23 23 23 23 23 24 24
24 27 28 28 28 29 29 27 25 25 27 28 26 24 22 21 21 21 21 22 22 22 24 26 26 23 23 28 33 33 33 34 34 34 34 34 33 31 31 30 30 30 30 29 29 29 29 28 28 28 28 27 27 26 26 26 26 26 25 24 24 24 23 23 23 23 22 22 22 23 23 23 22 23 23 23 23 23 23 23 23 23 23 23 24 24
22 23 26 28 28 29 29 29 27 27 27 28 29 27 23 22 22 21 22 21 22 22 23 24 24 22 23 27 32 34 34 34 34 34 34 34 33 33 32 31 31 30 30 30 29 29 29 28 28 28 28 27 27 27 27 26 26 25 25 24 24 24 23 23 23 23 23 23 23 23 23 23 23 23 23 23 23 23 23 23 23 23 23 24 24 25
22 23 27 29 29 29 29 30 31 29 26 28 30 27 24 25 24 22 22 22 22 22 22 23 23 25 27 29 32 33 33 34 34 34 34 33 33 33 32 32 31 31 31 30 30 30 29 29 29 29 28 28 27 27 27 27 26 26 25 25 24 24 24 23 23 23 23 23 23 23 23 23 23 23 23 23 23 23 23 24 24 24 24 24 24 24
22 23 28 29 28 30 30 30 30 29 26 27 27 25 26 29 28 23 21 22 22 22 22 22 23 26 28 30 32 33 33 33 33 33 33 33 33 33 32 32 31 31 31 30 30 30 29 29 29 29 29 28 28 27 27 27 26 26 26 25 25 24 24 24 23 23 23 23 23 23 23 23 23 23 23 23 23 23 23 23 24 24 24 24 24 24
24 23 27 28 27 29 31 30 30 30 29 26 24 26 29 30 28 25 22 22 22 22 22 22 22 24 24 26 31 33 33 33 33 33 33 33 33 33 33 32 32 32 31 31 30 30 30 29 29 29 29 29 29 28 27 27 26 26 26 25 25 25 24 24 24 23 23 23 23 23 23 23 23 23 23 23 23 23 23 23 23 24 24 24 24 24
26 23 25 29 29 28 30 30 28 29 31 29 28 30 29 25 24 23 22 22 22 22 22 22 22 23 23 25 29 31 32 34 34 33 33 33 33 33 33 33 32 32 32 31 31 30 30 30 30 30 30 30 29 28 28 27 27 26 26 26 26 25 25 24 24 24 23 23 23 23 23 23 23 23 23 23 23 23 23 23 23 23 23 24 24 24
27 24 23 28 30 28 29 28 25 26 29 29 29 30 29 26 24 23 23 23 22 22 22 22 22 23 25 29 31 32 33 34 34 33 33 33 34 34 34 34 33 32 31 31 31 31 30 30 31 31 30 30 30 29 28 28 28 27 27 26 26 26 25 25 24 24 24 24 23 23 23 23 23 23 23 23 23 23 23 23 23 23 23 23 24 24
27 25 22 25 28 27 26 27 27 27 27 27 26 26 27 27 26 25 24 24 23 22 22 22 22 23 27 32 33 34 34 34 34 33 33 33 34 34 34 34 33 32 31 31 32 31 31 31 31 31 31 30 30 29 29 29 28 28 28 27 26 26 26 25 25 24 24 24 24 23 23 23 23 23 23 23 23 23 23 23 23 23 23 23 24 24
24 25 23 23 25 24 25 29 31 30 30 28 27 26 26 26 25 24 23 23 24 23 22 22 22 23 29 32 32 34 35 35 34 34 33 33 33 34 34 34 34 33 32 32 32 32 32 31 31 32 31 31 31 30 30 30 29 29 28 28 27 27 26 26 26 25 24 24 24 24 24 24 23 23 23 23 23 23 23 23 23 23 23 23 24 24
22 23 23 23 24 26 28 30 30 31 31 31 30 29 30 28 25 22 22 23 23 23 23 23 21 25 31 33 32 34 35 35 35 34 33 34 34 34 34 34 34 33 32 32 32 32 32 32 32 32 31 30 30 30 30 30 30 29 29 28 28 28 27 27 27 25 24 24 24 24 24 24 24 23 23 23 23 23 23 23 23 23 23 23 23 24
21 22 22 22 24 27 29 30 30 30 30 29 30 31 31 29 28 27 25 24 23 22 23 23 21 24 31 32 31 33 33 33 34 33 33 34 34 34 33 33 33 32 32 32 32 32 32 32 31 31 30 30 30 30 30 30 30 29 29 29 28 28 28 28 27 26 25 25 24 24 24 24 24 24 24 24 24 24 24 24 24 23 23 23 23 23
21 21 22 22 22 23 25 26 27 27 28 28 29 30 31 30 30 30 27 25 23 23 23 23 21 25 29 30 30 31 31 32 33 33 32 32 33 33 33 32 32 31 31 31 31 32 32 31 31 30 30 30 29 30 30 29 29 30 29 29 29 29 28 28 28 27 26 25 25 25 24 24 24 24 24 24 24 24 24 24 24 24 23 23 23 23
20 21 21 21 21 21 22 22 22 23 25 26 27 29 30 30 30 28 25 23 22 23 23 23 22 26 30 31 31 31 31 32 33 33 32 31 31 32 32 31 31 31 31 31 31 31 31 31 30 30 30 29 29 30 30 29 30 30 29 29 29 29 29 28 28 27 27 26 26 25 25 24 24 24 24 24 24 25 24 24 24 24 24 23 23 23
20 20 20 20 21 21 20 20 21 22 23 23 25 26 28 29 30 28 25 22 23 23 23 24 25 25 29 32 33 33 33 33 34 34 33 33 32 31 30 30 29 30 30 30 30 30 30 30 30 30 29 29 30 30 30 30 30 30 29 29 29 29 29 28 28 27 27 27 26 26 25 25 25 25 25 24 24 25 25 24 25 24 24 24 24 23
20 20 20 20 20 20 20 21 22 22 22 22 23 24 26 27 29 27 24 24 25 23 21 25 27 25 27 32 34 34 34 34 33 34 34 34 33 31 30 29 29 30 30 30 29 29 30 30 30 29 29 29 30 30 30 30 30 30 29 29 29 29 29 28 28 27 27 27 27 26 25 25 25 24 24 24 24 24 24 24 24 24 24 24 24 24
19 20 20 20 20 20 21 22 22 22 22 22 23 23 24 25 26 25 25 27 27 24 23 27 27 25 28 33 33 34 35 34 34 34 33 33 32 30 30 31 31 31 31 30 29 29 29 29 29 29 29 29 30 30 30 30 30 30 29 29 29 29 29 28 27 27 27 27 26 26 25 25 25 24 24 24 24 24 24 24 24 24 24 24 24 24
18 19 19 19 20 21 21 22 22 22 22 22 23 23 24 25 25 25 26 28 28 26 27 29 28 27 31 33 33 35 35 34 34 33 32 32 32 31 31 32 32 32 32 31 31 30 29 29 29 29 29 29 29 30 30 30 30 30 30 29 29 29 29 28 27 27 27 27 26 26 25 25 25 24 24 24 24 24 24 24 24 24 24 23 24 24
18 19 19 19 20 21 21 22 22 22 22 22 22 24 24 24 25 25 26 27 27 26 29 29 27 27 31 32 32 33 33 32 32 32 32 32 32 31 32 33 34 34 33 32 31 30 29 29 29 29 29 29 29 29 30 30 29 30 30 30 30 29 29 29 28 28 27 27 26 26 26 25 25 25 24 24 24 24 24 24 24 24 24 23 23 23
18 19 19 19 19 20 21 21 21 22 22 22 22 24 25 24 25 26 26 27 27 26 27 26 25 27 30 31 31 31 30 30 31 32 33 33 33 32 33 35 36 36 34 32 30 29 28 28 29 28 29 29 29 29 29 29 29 30 30 30 30 30 29 29 28 28 27 27 26 26 26 25 25 25 24 24 24 24 24 23 23 23 23 23 23 23
17 18 19 19 19 20 21 21 21 21 21 22 23 24 25 26 26 27 28 28 29 28 27 25 26 30 31 31 31 32 32 32 32 33 33 34 33 32 33 34 35 35 34 31 29 28 28 29 29 29 29 30 30 30 30 30 30 30 30 30 30 30 30 29 29 28 27 27 27 26 26 25 25 25 24 24 24 24 23 23 23 23 23 23 23 23
16 17 18 19 18 19 21 21 21 21 21 22 23 23 23 25 25 26 27 28 30 30 29 29 30 31 31 31 31 32 33 33 34 33 33 32 32 32 32 32 33 33 31 28 27 28 28 28 29 29 30 30 30 30 30 30 30 30 30 30 30 30 30 29 29 28 27 27 27 27 26 25 25 25 24 24 24 24 23 23 23 23 23 23 23 23
16 16 18 18 18 19 20 20 20 20 21 22 23 23 23 23 23 23 25 27 28 29 30 30 31 31 31 31 31 32 33 33 31 30 29 28 28 29 30 30 30 29 28 27 26 26 26 26 27 28 29 30 31 31 30 30 30 30 30 30 29 29 29 29 28 28 28 27 27 26 26 26 25 25 24 24 24 24 24 23 23 23 23 24 23 23
16 16 17 18 18 19 19 20 20 20 22 23 24 23 22 22 22 23 25 26 25 24 25 27 29 30 31 31 31 31 31 30 28 26 25 25 25 25 27 28 27 26 26 25 25 24 24 25 26 27 29 30 30 31 30 30 30 30 30 30 30 29 29 29 28 28 28 27 27 26 26 25 25 25 24 24 24 24 24 23 23 23 23 23 23 23
16 16 17 17 18 19 19 20 20 21 21 23 23 22 22 22 22 22 23 24 23 21 21 22 24 26 28 29 30 29 28 28 28 28 26 25 24 24 24 25 25 24 24 24 24 24 24 24 24 26 27 29 30 30 31 31 31 31 31 30 30 29 29 29 28 28 28 27 27 26 26 25 25 25 25 24 24 24 24 24 23 23 23 23 23 23
16 16 16 17 18 19 19 20 20 20 21 22 22 22 21 21 21 21 21 23 22 20 20 21 21 23 24 25 26 27 26 27 29 30 28 25 24 24 24 24 24 24 24 23 23 24 24 24 24 25 26 28 29 30 30 31 31 30 30 30 30 29 29 29 28 27 27 27 26 26 26 26 26 25 25 24 24 24 24 24 24 23 23 23 23 24
15 16 16 16 17 19 19 19 19 20 21 22 22 22 21 21 21 21 22 22 21 20 20 21 21 21 22 23 24 25 27 29 31 32 29 25 24 24 23 23 24 23 23 24 23 24 24 24 24 25 26 28 29 29 30 30 30 30 29 29 30 30 29 28 28 28 27 27 27 27 26 26 26 25 25 25 24 24 24 24 24 24 23 23 24 24
14 15 15 15 16 17 18 19 20 21 21 22 21 22 22 21 21 21 22 22 20 19 20 20 20 20 21 22 22 24 26 29 30 29 26 23 23 22 22 22 23 22 23 24 24 23 23 24 24 26 27 28 28 28 29 29 30 30 29 29 30 30 29 28 28 28 27 27 27 27 26 26 26 25 25 25 25 24 24 24 24 24 24 23 23 24
14 14 15 15 16 17 17 18 20 21 22 22 22 22 22 21 21 22 22 21 19 19 20 20 20 20 20 21 22 23 25 25 24 24 23 22 22 21 21 22 22 23 23 23 23 23 24 24 24 25 25 24 25 27 28 29 29 29 28 28 29 29 29 29 28 28 27 27 27 27 26 26 25 25 25 25 25 24 24 24 24 24 24 24 24 24
14 14 14 14 15 16 17 18 19 20 22 22 22 21 22 21 21 22 21 19 19 20 20 19 19 19 19 20 21 22 22 21 21 22 22 21 21 21 21 21 22 23 23 23 22 22 23 24 23 23 23 23 23 25 27 28 28 28 28 28 28 29 29 28 28 28 27 27 27 26 26 26 25 25 25 25 25 25 24 24 24 24 24 24 24 24
14 14 15 15 16 16 16 17 17 18 21 22 22 22 22 22 22 21 20 20 20 20 19 19 19 18 18 19 21 22 21 20 20 20 20 20 20 21 21 21 21 21 21 21 22 23 23 23 22 22 22 22 22 23 25 27 28 27 27 27 27 27 28 28 28 28 27 27 27 26 26 26 26 25 25 25 25 25 25 24 24 24 24 24 24 24
14 14 14 16 16 16 16 16 17 18 19 20 22 23 22 22 21 20 19 20 20 19 19 18 18 18 18 18 20 21 20 19 19 19 19 20 20 20 20 20 20 20 20 20 21 22 23 22 22 21 21 20 20 21 23 25 26 27 26 25 25 26 27 27 27 27 27 27 26 26 26 26 26 26 25 25 25 25 25 25 24 24 24 24 24 24
14 13 13 13 14 15 15 16 17 17 18 19 20 22 22 21 20 19 19 19 19 18 18 17 17 18 18 18 19 19 19 19 19 19 19 19 19 20 20 20 20 20 20 20 20 20 21 22 21 21 20 20 20 20 20 22 24 24 23 23 23 25 26 26 27 27 27 26 26 26 26 26 25 25 25 25 25 25 25 25 24 24 24 24 24 24
14 13 13 12 13 14 15 16 17 17 18 19 19 20 20 20 19 19 19 19 18 18 17 17 17 17 18 18 18 18 18 18 18 19 19 19 19 19 19 20 20 20 20 20 20 20 20 21 21 21 20 20 19 20 20 20 21 21 21 21 22 23 24 25 26 26 26 26 26 26 26 26 26 25 25 25 25 25 25 25 25 25 24 24 24 24
14 13 12 12 12 12 14 16 17 17 17 18 19 19 19 19 19 18 18 18 18 17 17 17 17 17 17 18 18 17 17 18 18 18 18 18 18 19 19 19 19 20 20 20 20 20 20 20 20 20 20 20 19 19 19 19 20 20 20 20 21 22 23 24 25 25 26 26 26 26 26 26 26 26 26 26 25 25 25 25 25 25 24 24 24 24
13 13 12 12 12 12 13 15 16 15 15 16 17 18 19 18 18 18 17 17 17 17 17 17 17 17 17 17 17 18 17 17 17 18 18 18 19 19 19 19 19 20 20 20 20 20 20 20 20 20 20 19 19 19 19 20 20 20 21 21 21 22 23 24 24 25 25 25 25 25 25 25 25 26 26 26 25 25 25 25 25 25 25 25 25 25
12 12 12 12 12 12 13 14 15 15 16 16 16 17 18 19 18 17 17 17 17 17 17 18 18 17 17 17 17 18 18 17 17 17 18 18 18 18 19 19 19 19 20 20 20 20 20 20 20 20 20 19 19 20 20 20 20 20 20 20 21 22 22 23 23 23 23 23 23 24 24 24 24 24 24 25 25 25 25 25 25 25 25 25 25 25
11 11 12 12 11 11 13 15 16 15 15 15 16 17 18 18 18 18 17 17 16 16 16 17 18 17 17 17 16 17 17 17 17 17 18 18 18 18 18 18 18 19 19 19 19 20 20 20 20 20 20 19 20 20 21 20 20 20 20 20 20 21 21 21 21 21 21 21 21 21 21 22 22 22 23 24 24 24 24 24 24 24 24 24 24 24
11 11 12 12 12 12 14 15 15 14 13 14 15 16 17 18 18 18 17 16 15 15 16 16 17 17 17 17 16 16 16 16 16 17 17 18 18 18 18 18 18 18 18 19 19 19 19 19 19 20 20 20 20 20 20 20 20 19 19 19 19 20 20 20 20 20 20 20 20 20 20 21 21 21 22 22 22 22 22 22 23 23 23 23 23 22
Height
752 762 763 759 756 755 756 757 758 759 759 762 767 770 771 771 767 759 759 754 750 758 756 752 756 753 750 749 749 749 751 754 756 757 758 757 758 758 759 761 761 763 764 765 769 772 775 778 780 783 785 788 790 793 795 797 799 800 803 806 808 811 813 815 817 820 822 824 826 828 830 831 833 834 835 836 837 838 840 841 842 844 845 847 848 849
753 759 754 750 751 751 754 757 758 760 761 762 766 769 769 769 765 757 758 754 750 760 757 749 754 752 746 745 744 747 752 753 752 753 755 754 755 755 755 757 758 760 761 764 767 769 772 775 777 780 782 785 787 789 792 793 795 798 800 802 804 807 809 811 813 816 818 820 822 824 827 829 831 832 833 834 836 837 838 839 841 843 844 845 847 848
759 754 746 745 748 751 755 756 759 762 763 764 765 769 769 764 761 758 756 753 751 760 759 752 755 751 743 743 743 744 747 746 743 743 745 747 751 752 751 753 755 758 760 761 763 765 768 771 774 777 779 781 784 786 788 790 792 795 796 799 801 803 805 807 810 812 814 817 819 822 824 826 829 830 831 833 834 836 837 838 840 841 843 844 845 847
758 748 739 741 746 752 757 757 760 763 763 763 762 767 767 759 764 766 759 756 753 755 756 754 755 749 743 744 744 742 740 740 739 739 740 742 746 747 746 748 752 755 758 758 760 761 764 768 770 773 775 778 781 784 785 787 789 791 793 795 797 799 801 804 806 808 812 815 818 820 823 825 827 829 830 831 833 834 835 837 838 839 841 842 844 845
746 738 733 739 745 750 756 758 759 763 763 760 758 760 760 757 763 765 760 758 754 754 752 755 761 752 742 746 745 740 740 740 740 741 743 743 743 744 746 747 749 751 753 756 757 758 760 762 765 769 772 775 777 779 781 783 786 787 789 791 793 796 798 800 803 806 810 813 816 819 822 824 825 827 828 829 830 832 833 835 836 838 839 841 842 844
737 733 732 739 745 746 753 756 755 757 760 759 754 751 754 756 760 762 762 762 766 767 754 756 776 765 743 746 747 742 743 743 741 742 744 744 742 744 746 746 747 747 749 752 753 755 757 759 763 766 768 770 772 774 776 779 782 784 785 788 790 793 795 798 800 804 808 811 813 816 818 820 822 823 824 825 827 829 831 833 835 836 838 840 841 842
731 731 733 739 743 744 749 751 748 750 758 760 750 745 751 754 758 761 762 767 776 774 755 753 776 773 750 744 742 742 746 744 742 742 741 741 741 742 743 743 744 745 746 748 750 751 754 756 759 761 763 765 767 769 773 776 779 781 783 785 788 790 792 795 798 801 805 808 810 812 814 815 817 818 820 822 824 826 828 831 833 835 836 838 839 841
724 731 735 737 741 744 747 747 743 745 756 757 743 743 751 753 757 759 762 768 768 764 758 752 764 774 761 743 735 737 745 745 742 742 739 736 737 737 737 738 739 740 742 744 747 747 749 751 752 754 756 759 762 766 771 773 775 778 780 782 784 787 790 792 795 798 801 803 805 808 810 812 813 815 817 819 822 824 826 829 831 832 834 836 837 839
717 728 731 733 740 743 739 737 736 740 750 749 739 741 747 750 754 755 760 765 762 766 771 756 756 775 766 741 734 738 743 746 741 737 736 732 732 732 733 733 734 735 737 739 741 743 744 745 747 749 752 755 759 764 767 768 771 774 777 780 782 784 787 789 791 794 797 799 801 804 807 808 810 813 816 818 820 822 824 826 828 830 832 833 835 836
716 717 718 726 735 736 732 730 731 738 744 741 738 741 744 747 750 754 759 760 765 776 776 758 755 773 765 738 736 744 743 741 734 730 729 726 726 727 726 728 729 731 733 734 736 737 738 740 743 746 749 753 757 760 763 765 769 772 775 778 780 781 783 786 788 790 792 795 798 800 802 804 807 810 813 815 817 819 821 824 826 827 829 830 832 833
713 710 712 720 725 723 725 728 728 733 736 736 740 745 749 751 752 756 757 759 775 780 766 753 751 766 767 738 728 736 732 727 725 724 724 721 721 722 722 723 724 726 728 729 731 733 734 737 741 745 748 750 754 757 760 763 766 769 772 775 777 779 782 784 786 788 790 792 794 796 798 800 803 806 809 812 813 816 818 820 822 824 826 828 829 831
715 717 717 714 713 715 722 730 730 729 731 736 742 748 757 762 761 765 765 769 784 778 757 746 744 759 766 738 717 718 713 712 716 716 716 717 717 716 716 716 717 719 721 724 727 729 731 735 738 742 744 746 750 753 755 758 762 766 768 771 774 777 779 782 784 786 788 790 792 793 795 797 800 803 805 807 809 811 814 816 818 821 823 825 827 828
718 717 717 713 710 711 722 733 736 734 733 738 743 751 768 778 779 783 780 776 779 770 752 742 744 753 747 725 713 712 708 707 706 703 705 706 708 709 710 710 710 712 715 717 720 723 726 730 732 735 738 741 745 747 750 753 757 760 763 766 770 772 775 778 781 783 785 787 789 790 792 794 797 800 802 804 806 808 810 813 815 817 819 822 823 825
727 720 714 716 713 707 715 727 737 741 737 738 741 750 766 778 788 791 782 777 775 763 748 742 749 752 734 715 707 704 702 699 696 695 694 695 698 701 701 702 704 707 709 710 713 716 720 722 725 728 731 735 738 741 745 749 752 755 758 761 765 768 771 774 777 780 782 783 785 787 789 792 794 797 799 801 803 805 807 809 812 814 816 818 819 821
731 729 712 710 709 704 708 713 720 729 733 733 731 739 752 758 770 777 772 773 771 760 753 753 753 744 730 715 699 692 691 688 688 688 687 687 689 691 693 697 701 703 704 706 707 709 711 713 717 721 725 729 733 736 740 744 747 750 752 756 760 763 766 770 773 776 778 780 782 784 786 789 791 793 796 798 800 802 804 806 809 811 813 815 816 818
721 717 697 695 697 697 706 706 704 719 734 730 723 736 745 738 743 757 759 758 758 759 759 756 744 724 714 707 694 691 691 687 688 687 686 688 685 687 693 695 697 698 698 701 702 704 705 707 711 715 719 723 727 732 735 738 741 743 747 750 754 758 761 765 768 771 774 776 779 781 783 786 788 790 793 795 797 799 801 803 805 807 809 812 814 815
718 711 693 694 697 693 697 700 700 713 727 730 731 736 731 721 730 750 759 754 756 765 756 744 736 721 713 706 691 690 694 691 691 689 687 687 684 688 692 691 692 692 692 694 695 696 699 702 706 709 713 717 721 725 729 731 734 737 741 745 749 753 757 760 763 766 770 773 775 777 780 782 785 787 789 791 793 796 798 800 802 804 807 809 811 813
707 709 696 695 702 695 687 694 700 699 707 724 734 725 718 724 730 741 759 762 763 768 752 738 736 728 726 718 696 691 696 693 690 689 687 685 685 687 687 686 686 685 686 688 688 691 694 698 701 704 707 711 713 717 720 723 727 732 736 740 744 748 751 754 758 762 765 768 771 774 776 779 781 783 786 788 790 793 795 797 799 802 804 805 808 810
695 707 701 690 695 696 688 697 709 703 698 709 714 708 716 738 743 745 758 762 764 767 752 740 737 727 722 714 699 697 698 691 688 687 686 684 683 683 681 680 681 681 683 685 685 688 690 692 694 697 701 704 708 711 713 717 723 728 732 735 739 742 745 749 754 758 761 764 767 770 772 775 777 780 782 785 787 790 791 794 796 798 800 802 805 806
691 704 707 691 687 694 695 701 713 712 705 704 706 706 711 723 731 737 742 742 750 759 752 745 739 722 706 696 694 695 692 687 686 685 685 682 677 676 675 674 676 678 680 680 681 682 683 685 686 690 694 698 702 706 709 714 720 723 727 731 734 738 741 746 750 753 756 759 763 766 768 771 773 776 779 781 783 786 788 790 792 795 797 799 801 803
691 700 708 699 691 697 701 700 701 704 707 709 713 715 715 716 719 727 730 726 734 747 749 748 739 715 692 684 684 684 682 681 681 681 681 677 672 670 669 669 670 672 673 673 674 675 676 678 680 684 689 693 698 702 705 711 715 718 722 725 729 733 737 740 743 746 750 753 758 760 763 766 769 772 774 777 779 781 784 786 788 791 793 795 797 799
700 700 703 702 699 700 698 690 684 687 692 698 704 707 710 713 718 732 739 727 722 731 735 740 736 709 683 678 678 676 675 673 672 675 676 672 669 668 666 665 665 666 668 668 668 669 671 673 676 681 686 691 695 698 702 707 709 713 717 719 723 728 731 734 737 741 744 748 752 754 758 762 765 767 769 772 775 777 780 782 784 787 789 791 793 795
706 706 704 701 698 694 690 682 678 679 680 684 691 693 696 702 710 726 736 726 722 725 721 728 734 707 676 673 674 671 670 668 666 670 671 668 665 664 663 662 662 663 664 665 666 668 670 672 675 680 684 688 691 693 697 701 704 707 710 713 718 721 724 727 731 735 738 742 745 749 753 757 759 762 764 767 770 773 776 778 780 783 785 787 789 791
708 710 709 705 699 691 685 681 679 680 684 688 688 686 689 695 696 703 711 713 719 724 722 731 735 707 677 671 672 669 669 668 666 667 668 667 663 662 662 661 661 662 663 665 666 666 668 671 674 678 681 682 685 689 693 695 698 701 704 708 712 714 717 721 726 730 733 736 740 744 748 751 754 757 759 763 766 768 772 774 776 778 779 782 785 786
712 713 710 712 716 712 704 697 691 688 690 692 689 686 686 689 690 693 701 712 717 713 714 726 725 700 680 676 674 673 673 671 668 666 666 667 664 661 661 660 661 662 663 665 665 665 667 668 670 673 674 676 679 683 686 690 693 696 699 703 705 708 711 716 721 724 727 731 736 740 742 745 748 751 754 757 761 763 766 769 771 773 774 777 779 781
714 716 712 712 717 719 717 713 705 699 697 694 691 688 686 687 691 694 704 718 721 709 704 710 708 692 680 678 676 675 676 674 669 664 664 665 664 662 661 661 661 662 662 663 663 664 665 665 666 667 668 671 674 677 681 684 687 691 694 697 699 702 706 711 715 718 722 726 730 734 736 739 742 745 748 752 755 758 761 763 766 768 769 771 774 776
715 717 717 717 714 714 718 718 711 708 708 704 698 696 691 688 688 691 701 711 712 710 706 697 694 693 685 679 678 674 674 673 667 664 664 663 661 661 661 662 661 661 660 661 662 663 663 663 663 663 664 666 668 671 675 678 681 685 688 691 694 698 703 706 710 713 716 720 724 727 729 732 735 738 742 745 748 752 755 757 760 762 764 766 768 771
718 720 720 721 720 718 718 716 711 711 714 710 705 702 697 693 690 690 696 697 697 708 708 691 689 696 688 679 678 673 670 671 668 665 663 659 659 661 661 661 661 659 658 659 660 661 661 661 660 660 661 662 664 667 670 673 676 679 682 685 689 694 698 701 704 707 710 714 718 720 722 725 729 732 736 739 743 746 749 752 755 757 759 761 763 765
723 724 721 721 721 718 713 710 709 712 713 710 708 705 700 698 697 694 692 688 687 697 696 685 688 693 683 677 675 670 667 668 665 662 660 658 659 660 660 660 659 657 656 657 658 657 657 657 657 657 658 659 662 665 667 669 672 675 678 681 685 689 692 695 698 701 705 709 711 712 715 720 724 727 731 734 738 741 744 747 750 752 754 755 757 759
724 723 722 722 721 717 711 709 709 711 712 710 707 704 700 697 696 695 692 686 682 685 682 679 685 686 675 670 668 663 661 661 660 660 661 660 658 659 660 659 657 656 655 654 654 653 653 653 652 653 655 657 659 660 663 665 667 670 673 675 679 683 686 690 692 695 700 702 703 706 711 716 720 723 725 729 732 736 739 742 745 747 749 750 752 755
726 725 723 722 722 717 711 708 709 710 711 710 705 699 696 695 693 692 691 687 686 687 683 680 686 684 672 666 664 662 662 663 663 663 661 658 656 657 658 655 652 652 651 651 651 650 651 651 650 651 653 653 653 655 657 659 661 664 667 670 674 676 680 684 686 690 694 695 696 702 707 711 715 718 721 724 728 731 734 737 740 742 744 745 748 751
729 727 724 724 727 720 711 711 711 707 704 704 699 693 690 689 688 686 684 683 684 687 687 687 689 684 672 666 665 664 664 667 665 661 658 654 653 654 654 652 649 648 648 649 649 649 650 649 649 649 648 648 649 651 652 654 657 661 663 665 667 669 674 679 681 684 687 689 693 699 703 707 710 713 716 719 723 726 729 733 735 737 739 741 743 746
733 731 726 727 731 723 713 713 712 708 709 703 691 685 683 680 679 677 675 675 675 678 683 685 681 673 665 664 666 664 662 662 660 656 653 650 650 652 652 650 647 645 645 647 648 647 647 646 644 644 643 643 644 645 647 650 654 656 657 659 662 666 671 673 675 678 681 685 690 694 698 702 705 708 712 714 718 722 725 728 731 732 734 736 739 742
735 734 729 727 731 728 716 712 714 715 714 700 684 683 684 681 680 679 675 671 668 668 671 671 667 662 660 662 664 662 657 653 650 648 646 646 648 650 649 647 645 643 643 645 645 644 643 642 641 639 639 639 640 641 644 648 650 651 653 657 661 665 668 670 672 674 677 682 686 690 694 698 701 704 708 711 715 719 721 723 725 727 730 733 735 738
736 735 731 727 730 727 717 717 724 721 705 687 680 681 681 681 683 683 677 671 668 666 665 663 662 659 657 657 656 653 650 647 646 647 647 647 648 648 647 646 644 644 644 644 643 641 640 640 639 637 635 636 637 639 642 643 644 647 651 655 658 661 663 666 669 671 675 679 683 688 692 694 697 701 705 708 712 715 717 719 721 723 726 729 731 733
736 735 731 727 727 726 724 725 724 711 691 678 678 680 680 682 685 683 678 673 672 674 672 668 663 657 654 654 652 649 649 648 650 651 650 649 648 647 647 645 643 643 643 641 641 639 638 637 635 634 633 633 635 636 637 638 640 644 648 651 654 657 660 664 667 670 674 677 680 684 688 691 695 699 702 705 708 710 712 714 716 719 722 724 726 728
733 734 731 729 724 722 724 720 710 703 695 685 682 683 684 686 687 687 685 679 676 679 679 676 672 664 659 657 654 652 652 654 655 651 646 646 647 646 645 643 642 642 640 638 637 636 635 634 633 632 631 631 631 632 632 634 638 641 644 647 650 653 656 660 663 666 669 673 677 681 684 688 692 694 697 700 702 704 706 708 710 713 716 719 721 723
730 731 731 730 722 717 721 718 711 712 706 691 684 684 683 683 684 687 689 684 677 679 680 679 677 671 666 663 660 657 657 661 660 650 641 642 644 643 643 642 640 639 637 636 635 633 632 632 630 629 629 628 628 629 630 633 636 638 641 643 645 648 652 655 657 660 664 668 672 676 679 682 685 687 690 692 693 696 698 701 704 707 710 712 715 717
729 729 729 730 724 716 719 718 713 710 699 686 682 681 679 680 681 684 688 684 678 679 679 677 677 674 670 668 664 662 662 663 658 645 637 640 642 642 643 642 639 638 636 634 633 632 630 629 627 627 626 626 626 627 628 631 633 635 637 639 642 646 648 649 650 653 658 662 666 669 673 675 678 682 684 686 688 691 693 696 699 702 705 708 710 711
731 731 731 734 729 720 718 712 703 697 688 681 681 679 677 677 680 688 692 684 679 680 677 675 677 675 671 669 667 664 662 658 652 644 639 640 641 641 643 642 640 639 635 633 633 631 629 627 625 625 625 626 626 626 628 630 631 633 635 637 640 642 642 643 646 650 655 658 662 665 668 671 674 678 680 682 683 686 689 691 694 697 701 703 706 708
731 731 731 731 727 722 721 713 701 690 680 677 679 677 675 679 684 689 688 681 679 680 675 674 675 673 671 670 667 663 658 654 652 648 644 644 644 644 644 642 641 638 636 634 633 631 629 627 626 626 627 627 627 627 627 629 630 632 634 636 638 639 639 642 646 651 655 659 661 664 667 669 672 674 676 678 681 684 686 688 691 694 696 699 702 705
729 729 729 729 726 722 718 712 706 694 676 671 677 676 675 683 688 682 677 676 677 676 673 673 673 671 671 669 665 661 657 654 653 650 648 648 649 648 647 644 642 640 637 636 634 631 630 628 627 628 628 628 627 627 627 629 630 631 634 636 637 639 641 644 647 650 653 656 659 661 664 666 669 671 674 677 680 682 684 686 689 692 694 696 699 701
728 727 724 721 720 721 721 718 717 705 681 669 675 678 677 680 679 673 671 673 672 671 673 673 670 669 671 668 662 659 657 656 655 652 651 650 650 651 650 648 646 644 640 637 635 633 631 630 630 631 630 629 629 629 628 630 631 632 635 637 638 641 642 643 645 648 650 652 654 656 659 661 663 667 670 673 675 678 681 684 686 689 691 693 696 698
726 726 724 716 712 717 720 713 706 698 684 674 674 674 672 672 670 670 672 672 670 671 673 673 670 669 669 667 663 659 659 659 657 654 652 651 650 651 653 652 650 648 644 640 638 636 635 632 631 632 633 633 633 632 631 631 632 634 636 638 640 641 642 644 645 647 649 650 652 654 656 659 661 664 667 669 672 675 678 680 682 685 687 689 691 694
723 725 728 726 720 716 713 704 695 689 685 682 677 671 669 669 669 670 671 670 671 672 672 673 673 669 667 666 664 662 661 661 660 656 652 651 651 652 653 654 653 651 647 644 642 640 638 636 634 635 635 636 636 634 633 633 633 635 637 639 640 641 642 643 645 646 648 649 651 653 656 658 661 663 665 667 669 672 674 676 678 680 682 684 686 689
720 723 727 728 724 716 708 700 695 690 685 682 679 675 673 671 670 670 671 670 671 671 672 673 673 670 667 665 664 664 663 662 661 659 654 651 652 653 654 655 654 651 649 647 645 643 641 639 637 636 636 637 637 636 636 636 636 637 639 640 640 640 641 642 643 645 647 648 650 652 655 657 659 661 663 665 667 669 671 673 675 676 677 679 681 682
721 723 725 725 725 723 713 699 692 692 688 685 683 679 676 674 672 671 671 670 669 670 671 671 670 669 668 665 664 665 663 661 662 662 657 653 652 653 654 654 653 652 650 649 647 646 643 641 640 638 637 637 638 637 638 638 638 639 640 640 640 641 641 641 642 644 646 648 650 652 654 656 657 659 661 663 664 666 668 669 671 672 674 675 676 677
722 723 725 724 723 722 714 702 696 697 694 690 688 684 679 677 675 671 668 667 668 670 670 669 668 669 668 667 666 665 663 662 663 663 661 657 654 653 654 654 653 652 651 650 649 647 644 642 641 640 639 639 640 640 640 640 640 641 640 640 641 641 641 641 642 644 646 647 649 651 652 654 656 657 659 660 661 663 664 665 667 668 668 668 669 670
725 726 725 723 722 720 712 702 697 696 692 688 687 684 679 677 676 671 665 665 669 670 669 668 668 668 669 669 667 665 664 663 662 662 663 661 658 655 654 653 652 652 652 652 650 647 644 642 641 641 641 642 642 643 643 643 644 643 642 642 642 641 642 642 643 644 646 647 649 650 652 653 654 656 657 658 659 661 662 663 664 665 665 665 666 667
727 726 720 721 723 718 708 699 696 698 696 690 687 684 679 676 675 669 663 665 672 674 670 668 669 668 668 668 668 667 667 665 662 661 662 663 661 658 654 653 653 653 653 653 651 649 646 644 643 643 643 644 644 644 645 645 646 646 645 645 644 644 644 643 644 645 647 648 650 651 652 653 654 655 656 657 658 659 660 661 663 664 664 664 665 665
724 720 716 718 717 708 699 697 698 701 700 694 688 685 680 676 674 668 662 664 671 674 672 670 670 670 669 668 669 670 669 666 662 660 660 663 663 659 655 653 653 652 653 654 653 651 649 647 646 645 645 645 646 646 646 647 647 648 647 647 647 646 646 645 646 647 648 650 651 652 652 653 654 654 655 656 657 658 659 660 660 661 662 662 662 663
Wind_Speed
7 6 9 11 10 11 11 12 11 3 2 6 7 8 8 8 9 6 2 1 3 7 7 5 7 10 9 6 11 13 14 14 13 13 13 14 14 15 16 17 17 17 16 17 22 24 25 25 24 23 22 22 23 23 24 25 27 29 28 26 27 26 26 27 25 22 22 21 20 19 18 18 17 17 17 17 19 21 22 23 21 19 19 18 18 18
7 11 13 11 7 7 9 11 11 9 7 7 7 7 7 8 9 5 3 4 2 5 9 8 10 13 10 7 10 13 15 16 16 16 16 17 16 14 17 19 18 14 13 15 19 22 25 24 24 24 22 23 25 25 25 27 28 29 30 30 29 27 28 30 30 28 25 23 22 20 19 18 16 16 17 16 17 18 20 23 22 20 19 19 19 18
9 12 12 9 6 6 9 10 13 14 13 9 8 7 8 8 7 5 4 5 4 4 8 9 10 11 9 6 8 14 16 16 18 20 19 19 18 16 17 18 17 15 15 17 18 21 25 25 26 25 23 25 26 26 27 28 29 28 29 30 28 29 31 32 33 33 30 28 27 23 20 18 16 15 16 16 16 18 20 22 22 20 20 20 20 19
9 9 10 11 9 11 11 11 14 13 12 11 9 9 10 7 5 6 2 1 2 4 7 9 9 9 6 4 8 13 15 13 16 18 16 15 16 17 17 15 16 17 17 18 18 20 22 25 27 26 25 25 26 26 27 28 28 28 30 31 32 33 34 34 36 36 34 31 30 28 23 20 17 14 15 17 19 20 21 22 22 22 22 21 21 20
8 2 9 15 13 15 13 11 14 11 9 12 13 12 11 9 7 6 1 3 4 5 5 7 9 9 6 6 6 9 12 12 12 15 14 12 13 13 13 13 15 17 17 17 19 19 20 24 26 27 26 26 27 27 28 29 29 29 30 33 36 36 35 35 36 37 34 30 28 26 23 20 17 15 15 17 18 19 21 21 22 23 23 22 22 21
10 4 10 16 15 17 16 12 15 13 9 10 14 16 12 7 7 5 2 4 6 6 4 3 8 7 3 5 5 5 9 12 11 13 15 14 13 13 13 14 15 16 16 16 18 19 19 22 25 26 27 27 28 29 29 30 30 30 30 33 36 35 35 34 34 35 32 29 26 23 21 20 19 18 18 18 17 17 19 18 19 23 24 22 22 22
8 8 10 15 16 18 17 13 15 14 10 8 9 12 10 8 9 10 6 4 5 6 2 3 7 7 3 5 5 6 9 12 12 13 16 15 14 15 14 14 15 15 16 16 17 18 19 22 24 26 29 30 30 30 30 29 29 30 29 31 34 34 34 32 33 34 30 27 26 25 24 23 21 20 19 19 18 17 19 20 21 24 24 23 23 23
9 13 12 13 14 16 15 12 14 15 12 6 6 11 11 11 13 11 8 7 7 8 5 6 8 9 9 7 5 8 9 10 13 15 16 16 16 17 17 16 16 17 17 16 17 19 20 22 25 27 30 33 32 30 28 28 30 31 31 33 35 35 33 33 34 33 29 29 29 27 26 23 23 22 18 18 20 20 22 23 23 24 25 24 23 23
12 17 17 16 13 12 12 11 14 17 14 4 6 10 11 12 12 10 8 9 6 6 9 9 8 7 11 5 5 7 9 10 14 16 17 18 18 19 19 18 18 18 17 17 17 19 20 23 28 30 31 32 32 30 29 30 30 30 31 33 35 35 34 35 38 35 32 35 34 28 27 25 24 23 18 17 20 21 23 23 24 25 25 25 24 24
8 14 17 16 12 10 11 10 13 18 13 3 7 7 7 8 7 7 8 6 3 6 11 9 8 7 10 7 5 5 7 11 12 13 15 18 18 19 19 19 19 17 17 17 18 18 20 25 29 30 30 30 30 30 30 30 29 27 28 30 33 35 36 36 39 40 37 39 37 33 32 30 27 24 21 18 19 21 22 22 23 25 26 26 25 25
3 5 11 12 11 11 10 9 12 16 12 6 7 7 6 5 4 3 4 2 4 9 11 11 10 7 9 8 8 7 7 10 10 9 12 15 17 18 18 19 19 17 16 17 17 18 20 25 27 27 28 29 29 29 28 28 27 26 26 28 31 33 33 33 37 40 39 38 38 37 39 37 32 27 24 21 20 22 23 23 24 26 27 27 26 26
3 4 7 6 9 12 10 9 9 13 13 8 8 8 5 3 2 3 3 3 9 9 5 9 12 11 11 7 7 10 11 11 11 11 12 15 17 18 18 18 19 18 17 17 17 17 18 21 22 24 27 29 28 28 28 28 27 26 26 28 30 31 31 32 34 37 38 36 36 37 39 39 34 29 27 27 25 26 27 25 24 25 27 26 26 26
9 7 5 4 9 13 12 9 7 9 12 11 9 9 7 5 4 6 6 6 9 6 2 4 9 11 12 7 4 9 11 12 13 13 12 15 17 17 18 19 18 17 18 18 18 17 16 17 18 23 27 28 28 28 29 30 29 28 28 29 31 31 32 33 33 35 37 36 36 37 38 37 34 31 31 30 29 29 30 28 25 26 27 27 28 28
7 7 7 7 7 12 15 11 8 8 11 13 10 10 9 7 6 9 8 5 6 4 2 3 5 7 9 5 9 14 14 14 15 14 14 14 15 17 18 19 18 18 19 18 18 18 17 17 17 22 26 27 27 29 31 31 31 29 28 30 32 31 33 35 33 34 35 36 38 40 39 36 34 34 33 31 30 30 32 31 29 28 28 28 30 30
10 8 10 14 8 12 17 13 10 10 11 13 10 9 9 7 7 6 5 5 4 2 3 5 5 6 4 2 7 14 15 14 14 14 14 13 13 14 15 17 18 18 18 17 18 19 19 19 19 22 25 26 28 31 32 32 31 30 28 32 34 32 34 37 36 34 34 35 38 39 39 37 36 37 34 32 32 32 33 34 32 31 29 29 31 31
14 7 7 16 12 14 18 13 11 12 10 10 10 10 11 8 6 2 1 3 1 1 3 5 4 3 1 2 4 7 9 11 11 11 12 12 12 10 10 13 16 17 18 17 18 20 20 19 20 23 25 26 28 30 31 32 32 32 31 33 38 37 36 39 39 37 36 37 37 39 40 37 36 37 34 32 35 36 36 36 34 34 33 32 32 32
10 6 6 11 11 14 18 14 14 13 7 6 9 11 8 6 8 5 2 1 1 4 4 5 6 4 2 7 8 9 9 9 11 11 12 13 12 10 10 12 15 16 17 18 19 20 20 19 19 24 26 27 29 30 32 33 34 36 34 33 37 37 34 37 41 40 37 37 38 40 41 38 36 37 35 34 37 36 34 36 36 35 34 33 33 32
5 5 6 10 12 13 13 16 16 14 10 7 9 10 7 6 7 7 4 3 4 7 4 5 10 8 4 5 5 9 11 11 11 12 13 13 11 11 11 12 15 17 17 19 20 18 18 18 19 24 28 29 32 33 35 37 37 38 37 35 36 36 36 38 41 40 37 37 38 38 40 39 37 37 35 34 34 34 32 34 36 34 33 34 33 32
4 4 5 11 15 9 8 13 13 11 10 5 7 10 8 5 7 6 5 6 7 8 5 5 8 8 9 7 2 6 11 11 12 12 13 14 13 12 12 13 15 15 15 16 17 16 16 18 20 25 29 31 33 33 34 37 36 36 37 37 36 37 39 38 36 35 36 36 36 35 38 40 39 37 35 32 33 34 34 34 35 34 33 34 33 33
3 5 4 6 10 10 10 11 10 10 7 2 5 10 6 4 6 7 5 4 5 7 5 3 4 6 8 9 8 9 9 10 11 10 11 13 14 13 12 12 13 13 14 15 16 17 19 21 24 29 32 32 33 33 33 34 34 35 36 36 36 36 36 35 34 34 36 37 35 34 36 39 39 38 36 34 35 36 35 35 35 34 33 33 34 34
1 5 5 2 5 9 9 9 11 13 10 6 8 10 7 4 3 5 5 4 4 6 5 5 6 3 2 6 13 15 12 11 11 10 10 12 14 13 12 11 11 12 13 15 16 18 20 21 24 29 32 32 31 31 31 31 32 34 34 34 36 35 33 35 36 35 37 38 35 35 36 37 38 39 37 36 37 37 36 36 37 36 35 34 35 35
0 4 5 4 6 7 7 10 16 18 16 14 11 10 11 9 5 6 6 6 6 5 4 4 7 4 2 3 8 11 11 11 11 11 10 11 13 13 12 13 11 10 12 15 16 16 18 18 20 25 27 28 27 28 29 31 31 33 33 34 36 35 34 36 36 34 37 38 36 37 38 37 37 39 39 36 35 35 35 35 37 38 36 35 36 36
2 1 4 5 4 3 5 9 14 13 12 15 12 11 13 11 9 9 7 7 7 5 2 3 8 5 3 5 7 8 10 10 9 9 9 10 12 12 12 13 11 9 9 11 12 13 13 14 16 19 21 23 25 26 29 31 31 32 34 34 34 35 36 37 35 34 38 41 38 38 38 36 36 37 38 36 33 33 33 33 36 39 39 36 35 36
2 1 4 4 1 1 2 5 6 4 5 10 11 11 12 12 13 12 6 4 7 7 5 5 8 4 2 3 5 4 5 6 6 7 8 9 8 8 10 11 10 8 6 7 9 10 10 11 12 14 15 19 23 25 27 29 30 31 33 33 33 36 38 37 34 32 36 39 37 36 37 36 35 35 36 35 33 32 32 32 33 37 39 37 33 35
1 1 4 5 4 5 6 7 7 5 4 7 8 10 13 14 17 15 5 2 6 11 12 9 9 4 3 0 2 3 4 6 7 7 7 8 7 7 8 7 7 6 5 7 8 9 11 12 13 14 14 16 21 25 27 28 29 30 32 33 34 36 36 36 33 31 34 37 35 34 35 37 36 35 35 35 33 33 34 33 31 33 37 37 33 34
1 1 1 5 8 10 8 7 6 3 3 3 4 8 13 17 20 15 5 4 8 10 12 13 8 2 3 1 2 4 4 6 9 8 6 7 8 7 6 4 4 5 6 8 8 9 11 11 13 14 14 16 20 24 26 28 29 31 31 33 35 35 34 34 33 32 32 34 34 34 35 36 36 35 35 35 34 34 35 34 32 31 35 37 34 33
1 1 2 1 2 2 1 1 2 3 1 3 2 3 7 13 18 15 9 7 6 5 9 13 9 5 4 4 3 4 6 6 8 7 6 7 8 6 5 4 4 4 5 6 6 8 9 10 13 16 15 16 20 24 26 28 30 31 30 32 35 33 31 32 33 32 32 34 35 34 35 36 37 36 35 36 36 35 34 35 34 32 33 35 35 34
0 2 3 4 4 4 5 5 5 4 4 5 6 6 5 7 13 17 14 8 7 6 11 11 7 10 10 6 5 6 6 6 7 7 6 6 5 4 4 4 6 6 6 5 7 9 10 11 13 14 13 14 19 23 26 27 30 30 30 32 34 32 31 31 32 32 32 33 33 34 36 37 36 36 36 36 36 35 34 34 35 33 33 34 35 35
1 1 3 4 5 5 7 8 5 3 5 6 7 9 9 8 9 13 14 10 10 10 13 7 8 11 12 8 9 8 5 7 7 5 5 5 3 3 4 5 7 7 6 6 8 9 10 11 12 11 12 13 16 20 23 26 28 28 28 30 30 32 32 30 30 33 32 32 34 37 37 36 34 33 36 36 35 35 35 34 34 34 33 36 37 36
2 1 4 6 7 6 7 7 4 2 4 7 8 11 12 12 11 10 11 13 13 14 14 10 9 11 11 10 12 11 7 6 4 3 6 7 4 4 4 6 7 6 6 7 9 9 10 11 11 11 11 12 14 18 22 24 26 28 30 31 31 32 33 30 32 36 35 33 37 39 38 38 36 33 35 39 38 38 39 36 35 35 34 37 39 36
3 2 4 6 6 5 5 6 4 5 7 9 10 11 11 12 12 12 11 12 12 12 14 15 11 8 6 5 8 7 2 2 4 6 8 8 5 4 4 5 5 5 6 7 8 8 9 10 10 10 11 13 15 19 22 24 26 29 32 32 32 34 33 31 33 37 36 35 36 37 38 40 40 36 37 41 40 39 41 38 36 36 35 37 39 36
4 2 2 4 4 4 4 6 9 12 11 11 12 12 13 13 12 11 9 9 10 9 11 14 11 6 3 4 8 7 3 4 8 9 8 7 5 4 5 6 5 6 7 5 5 6 7 10 11 11 13 15 16 19 23 25 25 27 30 32 33 34 33 32 32 36 38 36 33 37 40 39 38 38 37 39 38 38 40 38 35 35 34 35 37 36
3 3 2 2 3 4 4 6 10 12 9 9 9 8 10 12 12 12 12 11 11 9 9 9 7 4 5 7 9 10 9 10 10 9 9 9 7 5 6 7 8 7 6 4 5 6 7 9 10 12 13 15 17 22 26 27 25 26 30 31 31 30 30 31 33 37 39 34 33 39 41 37 37 37 35 36 37 36 37 37 36 35 34 35 35 35
4 4 3 2 2 4 7 8 9 8 6 4 1 1 4 7 8 10 12 12 11 11 9 8 6 6 7 9 9 11 13 13 10 8 7 6 6 6 7 8 8 7 6 4 5 7 8 7 8 10 13 16 20 24 25 26 27 29 29 26 24 26 29 30 30 32 34 33 35 40 40 36 36 34 32 33 35 34 35 37 36 35 34 33 33 33
4 4 3 2 2 4 5 6 6 7 5 4 2 1 3 4 4 8 10 9 8 9 11 12 11 10 9 8 10 13 13 10 5 2 2 3 4 5 7 7 6 6 6 5 6 7 7 7 9 10 12 16 19 20 21 24 27 28 25 23 24 28 32 31 30 30 29 29 33 35 35 35 33 29 29 31 32 32 34 35 35 35 33 31 32 33
6 5 3 3 4 3 2 5 6 3 9 12 2 4 2 2 2 7 6 3 3 5 5 8 10 10 9 8 9 9 6 3 2 1 2 4 4 5 6 6 5 5 6 5 6 7 7 8 10 11 12 13 15 18 22 25 26 25 24 25 26 27 28 28 28 27 25 26 29 30 31 31 28 26 27 29 30 31 33 34 35 34 32 30 31 32
9 7 4 4 5 5 5 8 7 6 13 13 2 4 2 1 2 4 3 1 4 6 6 6 7 9 9 8 7 6 3 2 4 5 5 6 5 5 6 5 4 5 6 6 7 8 8 9 10 11 12 13 15 18 21 22 23 23 23 24 25 24 26 26 24 24 25 26 26 28 29 30 30 29 29 30 32 33 34 35 34 34 35 34 31 31
11 9 6 5 6 6 6 8 8 8 9 5 3 2 1 2 2 2 2 2 2 5 7 7 7 9 10 9 7 4 1 4 7 6 6 7 5 4 4 4 4 5 5 6 7 7 8 9 9 9 10 12 15 17 18 19 21 21 20 21 24 25 25 24 24 28 29 27 26 30 34 38 39 38 35 34 35 36 36 36 35 36 39 37 32 32
13 10 7 6 6 6 8 8 8 8 5 3 4 1 2 1 4 4 4 3 2 6 9 7 8 10 9 9 8 4 4 7 8 5 5 7 4 2 2 3 3 4 4 5 6 7 8 8 7 6 8 11 13 14 16 18 20 21 19 20 23 23 22 24 27 31 31 30 33 38 41 43 42 40 38 36 35 35 35 35 35 35 38 37 33 33
12 8 7 8 8 7 8 8 7 6 3 3 2 2 3 2 5 5 5 2 3 7 9 8 10 11 10 10 9 6 7 6 5 2 3 6 4 2 0 3 4 5 5 5 5 6 6 6 4 1 2 5 7 9 14 17 18 18 18 18 20 22 23 27 30 31 31 33 36 38 40 41 40 39 39 39 37 35 34 34 35 36 38 38 34 32
8 7 8 9 9 9 9 9 7 6 3 3 2 1 1 3 5 5 4 1 3 6 7 7 9 9 9 10 8 6 4 2 2 3 5 4 2 2 1 2 3 4 5 5 6 6 5 6 8 7 6 5 3 4 11 15 15 15 15 16 18 20 20 21 24 26 28 30 30 30 33 35 36 38 39 38 35 32 31 32 34 34 35 35 32 31
5 6 7 8 8 8 8 8 7 6 2 5 4 1 2 4 4 3 1 1 3 6 7 6 7 7 9 10 9 7 3 1 1 2 4 4 3 2 2 3 2 3 3 5 7 6 5 8 10 10 10 10 8 2 6 12 13 12 13 13 14 15 14 17 22 24 27 28 27 27 30 33 35 36 34 30 29 29 28 29 31 30 30 30 30 32
3 4 6 8 8 7 7 8 7 5 0 5 6 4 4 4 3 3 2 2 3 5 7 6 5 5 7 9 9 6 3 1 1 3 4 4 3 4 5 5 4 3 4 5 7 7 6 8 10 11 11 12 11 8 2 6 8 7 8 7 7 8 11 18 23 25 27 29 29 30 33 36 37 35 30 28 29 30 27 26 27 27 27 28 28 30
3 3 3 4 4 5 7 7 4 3 4 2 4 4 3 2 1 1 2 2 2 4 5 5 5 4 5 7 7 4 3 1 1 3 4 4 4 5 5 6 6 5 5 5 6 7 7 8 11 11 11 11 11 10 8 5 5 6 5 3 1 2 8 13 18 22 25 27 28 29 31 32 32 29 27 27 28 28 26 25 26 27 27 29 30 30
1 1 3 3 3 4 6 6 7 9 9 9 9 5 1 3 2 3 3 1 2 3 4 4 6 6 4 5 5 2 2 2 1 3 5 6 6 5 5 5 6 6 5 6 6 6 7 9 11 12 12 12 12 13 13 11 9 9 6 4 2 2 6 11 16 20 21 22 24 25 25 25 25 25 25 25 26 27 26 25 25 25 27 29 30 29
5 6 4 3 4 7 8 9 11 13 12 11 10 7 2 3 2 3 3 1 3 3 4 3 5 7 5 2 3 3 3 2 2 3 6 7 7 6 4 5 6 6 6 6 5 5 7 9 11 12 14 14 14 14 15 14 13 11 7 5 4 2 2 8 13 16 17 17 19 21 20 20 20 22 23 24 24 25 26 25 25 25 27 28 28 31
6 4 3 4 6 7 6 6 8 11 12 11 9 8 6 5 4 3 3 4 5 4 4 3 4 6 6 3 3 2 3 4 3 3 5 7 7 6 5 5 5 6 6 6 6 6 7 9 10 12 14 15 15 16 15 15 14 12 8 6 6 4 2 3 7 10 12 12 12 14 16 17 18 19 20 22 24 24 23 24 24 23 24 26 28 31
3 3 5 6 6 5 7 11 12 12 13 12 10 9 7 5 6 5 5 6 5 4 4 5 5 6 6 6 4 3 3 5 5 4 4 6 7 7 6 5 6 6 6 6 7 7 9 11 11 12 14 15 15 15 15 15 15 13 12 11 9 7 6 5 4 4 5 5 6 7 9 12 14 15 15 16 20 22 21 22 24 24 25 29 31 32
5 6 7 7 7 7 10 14 12 10 11 11 12 12 9 7 7 4 8 10 7 5 5 5 6 7 6 7 7 5 4 6 6 6 5 5 5 6 6 6 6 6 6 7 8 9 11 12 13 14 15 15 14 15 16 16 15 15 14 13 12 11 9 9 8 7 6 5 3 3 3 4 6 7 7 9 12 15 16 18 22 23 24 27 30 31
6 8 7 7 7 8 9 8 5 4 7 8 10 13 13 12 10 4 9 11 7 6 6 7 7 7 7 8 8 7 6 6 7 7 6 6 6 6 7 7 7 7 7 8 9 10 12 13 14 15 14 13 14 15 17 17 16 15 15 14 15 14 13 11 10 10 9 8 7 6 4 3 2 1 1 4 6 7 9 13 18 20 21 22 24 26
6 8 7 7 9 11 12 10 6 5 7 9 12 15 13 12 11 4 9 12 8 5 6 7 8 7 8 9 8 8 8 8 8 7 7 7 7 7 8 9 8 8 9 10 10 10 12 13 14 14 14 13 13 15 17 16 15 14 15 16 16 16 15 13 12 12 11 10 9 8 7 6 4 3 2 1 3 4 4 7 12 17 20 22 23 26
Wind_Direction
177 200 208 213 212 198 196 202 207 208 167 188 196 222 236 246 252 259 271 280 329 303 281 268 277 279 278 235 199 195 194 200 199 188 189 189 187 189 191 196 199 200 200 195 196 198 198 199 197 195 195 194 195 196 195 195 197 199 198 197 199 201 201 202 202 200 201 202 205 210 213 217 220 221 225 228 233 237 241 243 242 242 242 240 238 238
183 215 221 209 195 181 186 194 202 211 214 198 192 214 229 235 248 267 286 275 285 287 280 289 292 284 282 256 207 189 191 200 200 193 195 195 193 194 194 197 199 197 194 193 196 197 198 199 197 196 196 196 198 197 196 197 199 201 200 201 200 199 201 206 207 204 202 202 204 205 208 212 215 218 220 223 228 232 238 242 241 240 240 237 236 239
203 226 216 183 160 166 183 191 197 211 220 221 217 223 236 234 252 275 277 270 246 251 280 294 293 285 288 269 209 192 195 203 203 200 198 195 194 195 196 197 194 191 191 193 195 195 197 199 198 198 198 199 201 201 199 199 200 200 200 201 200 200 204 208 210 209 207 208 209 208 206 207 210 214 218 220 226 231 236 241 241 238 236 235 236 240
206 229 196 165 166 184 188 190 195 208 217 224 223 221 234 227 235 252 214 75 220 226 279 300 295 283 278 251 212 202 204 208 208 208 206 200 199 201 199 196 191 191 193 193 195 195 197 198 199 199 198 198 201 203 203 202 200 200 200 201 201 203 206 208 211 213 212 212 214 214 213 213 213 216 222 226 231 235 238 240 239 237 233 233 236 239
210 196 166 168 178 193 196 189 193 205 215 220 221 222 232 219 216 240 273 344 280 235 255 287 294 281 248 232 223 203 206 215 212 209 212 209 208 210 204 200 197 195 196 194 195 196 196 198 199 199 198 198 200 204 205 203 203 203 202 203 205 206 207 209 211 212 211 210 212 213 214 217 219 222 224 225 226 229 233 234 235 236 234 233 236 238
220 141 156 177 182 193 201 199 197 203 215 221 221 224 228 212 210 224 238 298 282 258 231 243 277 274 217 227 224 182 201 215 213 210 214 213 210 211 208 206 203 199 199 197 197 198 198 199 198 198 199 200 202 204 205 204 204 205 204 204 205 206 207 207 209 210 208 207 206 203 203 207 211 215 218 217 216 216 220 224 229 235 235 235 238 240
209 151 161 186 188 192 200 211 201 196 217 232 210 208 209 201 212 221 224 246 266 273 246 189 261 277 266 242 208 180 204 213 212 214 216 215 212 211 212 211 205 201 200 200 200 199 199 198 197 199 199 201 205 205 204 204 206 206 204 203 204 205 206 205 207 208 205 202 202 201 202 203 204 209 211 211 210 209 217 223 228 234 235 235 237 240
171 162 172 186 193 195 204 212 190 185 216 233 154 166 186 203 217 222 229 243 256 277 270 218 238 269 273 256 179 176 205 214 215 216 216 215 213 212 213 213 209 203 201 200 200 200 200 200 199 200 200 202 206 205 203 204 206 206 204 204 205 205 205 205 206 205 202 202 203 201 203 204 207 209 206 206 210 214 223 228 230 234 235 234 236 238
159 179 184 182 191 202 208 202 172 182 213 219 135 166 186 202 218 221 231 246 250 268 262 227 199 240 264 252 135 171 208 221 221 217 216 215 213 212 213 213 210 205 202 202 203 202 201 202 203 202 202 203 205 204 204 205 206 206 205 205 206 206 206 206 207 206 204 207 206 201 202 205 210 212 207 207 213 218 223 226 228 231 233 234 236 238
156 191 187 180 193 203 204 190 167 186 209 167 127 157 167 179 194 204 224 239 223 241 254 232 183 222 266 248 174 176 210 225 225 218 217 215 212 210 210 211 210 206 202 204 206 205 204 205 205 204 203 204 203 204 206 205 205 206 205 205 206 208 207 207 208 208 207 208 207 205 206 208 210 210 207 206 209 214 217 219 223 227 230 232 234 237
101 182 182 183 199 199 192 183 176 189 192 142 142 155 145 152 146 170 207 213 232 247 247 228 200 216 268 251 196 190 208 213 218 221 218 215 213 211 210 210 208 204 201 203 207 208 208 209 207 205 205 206 204 204 206 205 205 207 205 205 208 210 208 206 207 208 208 207 207 209 211 212 211 207 204 203 205 209 212 213 217 223 227 230 232 235
197 169 172 186 199 190 179 181 186 187 180 169 184 188 177 175 170 210 199 190 238 250 227 215 207 210 245 247 187 195 203 198 212 223 216 211 211 210 209 209 207 204 200 199 203 208 208 207 205 205 207 206 203 201 203 204 205 206 204 204 207 209 208 206 207 207 207 206 207 210 213 214 212 208 205 206 207 209 211 211 212 217 223 226 229 232
213 196 173 182 197 189 182 187 187 179 185 196 200 195 201 200 192 220 215 209 238 241 133 191 199 210 241 251 195 206 206 202 214 223 218 212 208 206 206 207 205 204 201 197 199 203 205 203 200 202 205 203 199 199 201 204 204 204 203 202 205 207 208 207 206 206 207 206 208 210 212 214 212 210 210 211 211 212 214 212 210 213 217 220 224 228
203 213 203 194 194 189 188 189 182 175 189 200 198 190 197 195 197 216 215 222 247 225 142 138 177 226 256 246 212 213 210 207 212 217 219 215 205 201 202 203 202 202 202 199 198 199 201 201 198 202 204 200 199 201 202 203 203 203 200 201 205 207 207 208 207 206 207 207 210 212 212 212 212 212 213 213 213 214 216 216 214 215 216 217 221 225
198 217 202 195 184 173 190 201 182 166 182 199 195 191 203 204 205 215 207 219 247 209 150 147 176 224 240 199 212 214 213 210 210 213 215 216 211 202 199 199 199 202 203 202 200 199 200 198 196 200 202 199 200 202 202 202 201 199 199 200 204 206 206 208 208 206 207 209 211 213 213 213 213 214 214 214 216 216 219 220 219 219 219 219 224 227
209 228 178 189 182 163 187 201 167 156 181 195 182 195 217 206 188 217 248 212 236 274 188 183 215 242 234 300 268 235 230 221 221 222 217 224 223 205 196 197 198 204 204 202 202 203 202 197 194 198 200 199 200 200 202 201 198 199 200 201 206 207 206 208 208 207 208 210 211 213 214 213 214 216 214 214 218 219 221 222 221 222 224 224 226 229
210 221 140 169 180 178 188 181 163 172 179 167 183 203 204 173 184 221 252 125 201 256 220 198 242 265 271 268 241 217 228 227 227 230 225 230 226 207 198 197 201 205 203 202 203 203 201 195 194 199 200 199 199 199 201 200 198 200 201 200 204 207 205 206 208 208 208 209 211 213 214 214 214 215 215 216 219 219 220 223 223 224 226 226 228 230
202 209 138 155 183 195 187 170 174 183 160 145 195 190 136 137 198 223 235 207 219 246 234 205 238 244 232 253 216 193 209 216 221 224 225 231 228 219 213 203 204 206 202 203 203 200 197 196 197 202 203 201 199 199 199 200 199 201 202 202 202 203 203 206 207 207 207 208 209 212 213 213 213 214 215 216 218 217 216 220 223 223 224 227 228 229
206 215 165 179 190 177 154 169 182 183 168 165 184 164 141 176 192 181 216 227 217 238 248 212 231 238 223 226 205 190 203 210 217 218 221 226 226 225 222 212 207 204 203 203 202 200 198 199 201 202 204 204 201 200 200 200 199 200 203 203 203 205 205 205 204 204 205 207 208 210 212 213 214 214 213 213 215 216 215 217 220 221 222 225 226 228
198 211 198 196 185 154 154 187 190 181 189 184 150 162 175 211 186 172 195 211 205 229 249 229 230 238 223 213 212 216 214 216 221 218 220 225 224 223 221 216 204 197 201 203 202 203 201 202 204 202 203 204 202 201 201 200 199 200 202 202 204 206 204 202 201 201 204 206 206 208 211 213 214 214 213 214 215 217 217 218 219 220 221 223 225 227
188 208 210 148 148 161 175 195 193 185 188 185 177 184 187 181 177 184 196 205 212 223 232 247 251 240 184 193 207 213 214 219 221 220 223 227 227 227 225 223 207 192 199 203 203 204 202 202 204 203 204 204 203 202 200 199 199 201 202 201 203 203 201 201 202 201 203 204 204 206 208 210 212 214 214 215 217 218 217 218 219 220 221 222 225 226
351 202 203 173 172 187 182 187 199 198 192 192 194 192 188 186 177 186 203 208 215 227 217 245 264 248 137 164 204 209 213 220 221 219 226 231 232 231 230 231 221 201 201 205 205 206 204 203 202 202 201 200 201 202 199 199 200 200 201 202 203 203 202 204 203 200 201 202 202 205 207 209 211 213 214 213 214 215 215 218 220 221 221 221 224 226
355 177 201 199 194 198 179 193 211 215 204 203 204 194 193 194 186 195 212 192 193 221 210 248 274 269 138 164 197 204 213 222 224 220 227 234 234 232 233 236 233 220 213 212 210 209 207 202 197 196 195 193 197 200 198 199 201 200 201 201 201 202 205 206 203 200 201 202 202 204 206 207 208 210 211 210 210 211 212 215 218 221 221 220 221 224
343 197 199 204 204 294 216 219 234 249 226 219 214 202 198 198 197 208 218 173 185 203 185 221 253 246 120 174 204 211 228 240 243 232 232 241 241 237 237 239 238 233 217 208 208 205 203 195 187 190 194 195 198 199 197 198 200 200 201 200 201 203 205 205 201 199 199 201 202 202 203 205 206 208 208 208 209 210 210 212 214 218 221 219 217 221
305 228 189 191 193 207 216 219 218 201 202 223 223 211 206 203 205 212 203 137 212 207 195 218 239 198 105 35 235 243 260 263 262 248 238 247 255 248 242 239 237 234 214 201 199 193 191 190 188 194 199 199 198 197 196 196 197 199 201 201 201 205 206 203 200 199 198 199 200 200 202 205 206 207 207 207 209 210 210 210 210 212 216 216 213 216
249 8 218 207 205 204 206 211 213 197 192 222 231 217 211 207 209 212 193 188 217 203 197 219 234 148 101 134 220 242 253 264 264 258 242 245 253 254 255 255 240 229 220 210 197 188 191 193 194 198 200 199 197 196 196 197 199 200 202 201 203 206 204 200 200 199 197 196 197 199 202 204 205 206 206 205 207 208 208 208 208 208 212 214 212 213
206 48 6 310 235 215 230 256 308 349 297 247 282 256 226 216 213 212 210 209 196 174 209 225 237 259 231 180 178 223 229 244 259 263 258 252 250 246 247 256 254 246 236 221 201 194 195 197 200 201 200 198 195 194 195 196 199 200 199 201 204 205 202 199 198 197 194 195 197 199 201 202 203 204 203 203 204 205 205 206 207 208 209 211 211 210
99 61 43 31 20 4 333 312 311 317 278 265 282 281 269 243 224 219 221 204 149 183 232 221 211 244 241 201 197 224 220 234 249 256 266 272 263 240 228 235 244 246 236 219 208 204 201 203 206 204 200 197 195 194 194 196 199 198 197 200 202 202 200 197 193 192 192 194 197 199 201 201 201 201 201 201 201 202 203 204 206 207 207 208 209 210
327 43 46 12 348 337 316 306 305 286 259 260 268 267 270 271 249 236 233 212 176 208 241 211 178 225 239 221 223 231 226 240 250 259 280 292 280 219 204 215 232 239 233 224 223 215 207 209 210 204 200 198 195 195 195 197 199 197 197 200 200 200 201 195 190 192 193 194 198 201 201 198 198 199 198 198 199 201 202 203 205 206 207 210 211 211
319 10 36 351 327 322 314 310 318 314 281 274 269 264 265 266 261 253 248 239 227 234 248 238 203 216 231 229 229 232 237 254 275 304 287 276 257 211 208 221 227 231 228 225 228 225 216 213 212 204 200 198 196 197 196 198 199 198 200 201 198 200 201 196 194 198 199 199 202 203 201 199 200 199 198 201 202 204 204 204 206 207 208 212 214 212
338 4 23 348 322 309 318 323 322 321 310 290 273 262 258 258 255 249 243 244 245 245 251 256 248 229 230 250 249 244 258 292 269 261 258 255 246 235 248 254 246 244 239 229 230 232 225 222 217 206 201 201 200 199 198 198 198 199 202 202 200 201 200 197 197 200 202 204 204 202 203 204 205 204 204 205 205 205 207 206 207 209 210 213 215 212
331 325 14 348 311 292 325 340 328 324 313 283 264 256 250 245 246 247 240 234 235 236 242 249 254 254 246 261 261 254 238 233 240 246 252 254 251 245 260 270 268 260 254 247 248 244 232 228 222 211 209 208 204 201 201 200 198 199 202 202 202 201 199 197 198 200 205 207 203 202 204 204 204 205 205 204 203 204 206 206 207 209 209 211 212 212
300 294 322 322 291 293 315 330 329 324 302 267 255 254 251 249 252 253 246 237 229 227 237 242 245 251 227 225 243 249 240 235 236 240 249 254 250 236 242 251 252 254 254 249 257 256 245 236 228 221 217 211 204 203 203 200 197 199 202 202 200 197 195 196 198 201 206 205 201 202 204 202 201 202 201 200 201 202 203 204 206 208 209 210 211 211
274 270 282 285 271 289 306 323 319 290 255 253 272 291 266 260 265 266 260 252 238 227 241 259 255 241 226 217 225 237 241 241 241 241 247 252 245 234 237 241 245 258 265 253 251 256 252 247 240 233 228 220 215 210 204 200 201 203 203 200 194 194 196 199 199 200 202 202 201 203 203 201 201 200 198 198 199 199 201 204 207 209 210 211 210 210
261 252 253 241 244 277 304 313 279 239 248 314 34 59 277 244 265 293 279 266 259 246 246 250 244 234 227 219 220 232 241 249 262 284 266 246 235 231 239 243 244 257 267 260 255 257 257 254 248 241 235 229 222 212 202 201 204 204 200 195 192 197 201 203 203 203 202 200 201 202 201 201 200 196 195 195 196 198 201 204 207 210 209 209 210 212
234 239 241 220 225 247 259 249 233 246 323 315 312 83 9 245 294 305 270 227 12 353 301 267 257 254 248 235 233 242 254 279 326 311 230 236 239 233 241 249 250 258 265 267 265 263 262 260 256 251 246 236 222 209 204 205 204 200 197 196 195 198 200 202 204 205 201 197 198 199 198 197 196 193 194 194 195 199 202 205 207 207 206 207 210 212
219 229 233 219 218 218 229 246 253 304 312 297 267 80 27 282 346 328 271 191 50 32 2 330 303 294 291 281 272 278 301 303 264 238 207 211 232 241 249 261 265 267 272 274 275 273 269 264 261 257 251 239 223 212 208 205 199 195 194 194 192 193 196 199 201 201 199 196 195 195 194 195 195 195 195 195 197 201 203 205 206 205 206 208 208 211
207 216 222 222 215 207 228 252 258 264 268 247 141 73 342 245 228 218 234 237 91 45 3 339 318 312 313 312 307 301 261 248 259 246 196 189 212 238 250 264 270 274 282 290 292 288 282 276 268 257 244 232 223 214 205 197 192 189 188 189 191 192 194 196 197 199 199 195 193 195 198 201 202 201 198 196 199 202 202 204 204 205 208 209 208 211
205 213 223 239 237 212 217 234 238 240 237 146 128 324 332 218 194 196 232 237 76 19 354 339 325 318 312 312 313 292 215 229 248 247 175 160 170 216 251 281 296 298 304 312 313 307 303 300 289 264 235 225 221 209 197 194 191 187 187 190 192 192 193 197 200 199 196 194 197 202 203 204 204 204 201 200 201 203 203 204 205 206 209 211 211 212
202 211 216 229 239 227 225 237 239 241 240 125 146 300 330 160 174 203 249 263 34 356 340 338 331 320 312 313 306 260 227 231 253 312 93 123 135 134 317 314 318 325 331 340 336 326 325 334 344 359 221 237 232 209 195 192 190 191 190 189 192 195 199 203 204 201 197 197 201 204 204 204 203 204 205 205 205 205 205 204 205 207 210 212 213 215
202 210 213 220 230 229 231 241 247 250 240 166 182 307 68 153 194 228 247 273 3 335 332 331 325 323 319 310 290 257 254 282 329 8 50 74 84 87 43 319 326 342 350 2 360 354 14 41 48 52 40 8 335 220 197 190 187 191 190 187 195 203 204 204 203 201 200 202 202 202 203 204 203 204 207 207 206 205 205 206 207 207 208 211 213 216
202 206 215 222 226 226 230 243 256 267 232 151 160 128 129 187 238 264 286 299 298 321 334 323 316 332 329 309 284 267 281 2 25 34 60 52 26 24 357 344 6 10 14 35 28 23 46 57 52 46 34 22 18 17 196 191 185 185 187 190 201 208 204 201 201 200 200 202 202 201 203 205 206 206 208 208 207 207 208 209 209 208 209 211 213 216
220 222 224 216 213 219 231 235 241 265 275 141 160 178 188 218 281 330 328 306 315 336 333 315 314 340 336 315 292 260 231 164 111 79 70 56 31 8 350 349 355 357 14 39 44 45 63 72 65 54 39 29 26 32 91 181 182 175 176 185 202 211 206 203 201 200 200 202 202 203 205 207 208 206 206 207 207 208 210 209 208 208 208 209 211 217
217 225 249 237 217 213 220 220 227 299 329 288 235 214 184 193 313 296 269 297 346 347 333 322 321 332 339 325 303 250 177 122 101 89 75 66 49 21 360 353 349 352 9 27 42 55 73 85 82 70 55 43 38 43 55 84 122 127 127 118 111 208 209 206 203 201 202 203 204 205 207 208 207 206 206 207 205 206 208 206 204 206 208 209 211 216
189 22 307 275 263 253 253 266 290 307 312 301 292 293 150 157 206 212 222 272 353 350 340 325 315 319 339 342 328 325 65 44 63 84 78 73 56 32 14 5 356 355 9 21 33 51 71 85 88 84 73 60 52 53 53 57 75 86 75 53 52 169 198 203 204 203 203 204 206 207 207 206 206 206 207 206 204 205 208 207 204 207 209 211 213 217
315 338 322 274 292 302 290 267 262 275 287 290 294 299 259 185 194 194 187 123 60 18 351 333 322 323 331 16 34 27 26 23 34 66 75 76 64 50 42 28 14 10 14 23 34 47 67 80 82 81 75 63 55 57 56 55 61 64 52 36 38 51 196 203 202 203 204 206 207 208 206 205 207 209 210 210 209 211 212 210 209 210 210 210 212 216
302 319 311 283 288 299 290 256 252 274 289 290 286 286 273 246 216 189 150 84 67 40 5 3 358 341 339 15 56 50 38 35 27 39 68 79 77 69 60 50 42 32 25 30 39 51 69 76 72 70 69 60 52 52 51 51 53 51 46 45 43 40 64 180 194 199 204 206 206 207 207 207 210 213 212 211 212 215 215 212 212 213 212 212 215 219
298 330 323 296 273 265 274 282 287 293 296 289 274 269 270 249 221 186 118 84 68 51 32 29 32 24 8 360 358 14 55 51 32 21 45 74 85 81 71 63 58 49 42 43 47 57 69 71 68 68 67 63 58 53 50 49 46 42 40 40 36 40 58 79 116 156 173 184 195 203 209 213 216 217 216 213 213 216 217 214 215 216 216 215 216 219
281 295 291 279 279 279 276 280 283 280 275 271 262 259 258 247 232 182 102 82 56 39 41 44 48 48 33 10 360 9 42 51 34 14 10 34 61 68 67 64 58 49 43 40 43 53 62 66 67 67 65 65 65 61 57 55 49 44 41 37 36 42 55 65 75 85 89 95 113 147 182 205 213 217 225 227 225 226 229 227 225 228 231 228 224 223
264 271 267 267 277 271 259 264 285 288 276 277 275 268 259 249 245 205 104 87 61 35 32 39 43 42 38 32 19 12 22 32 29 23 14 12 24 42 52 54 51 44 35 31 36 48 56 62 67 68 67 67 64 60 58 57 52 48 45 42 42 46 50 58 67 70 69 68 69 72 78 87 102 124 213 232 236 244 247 244 241 242 248 250 245 241
227 248 257 264 267 263 264 274 298 308 291 288 289 282 269 260 260 231 114 104 94 70 46 43 39 28 31 37 28 17 19 18 16 24 24 12 11 29 44 48 47 42 35 31 36 46 52 57 63 66 68 69 65 60 59 58 56 55 53 50 49 49 51 57 64 66 66 66 68 72 76 80 84 82 86 213 244 261 272 271 263 259 261 265 267 264